[[{"header":{"parameterUnit":"m.s-1","parameterCategory":1,"la1":30.2991,"la2":30.254,"lo1":-89.0895,"lo2":-89.0444,"dy":0.0017,"dx":0.0017,"nx":28,"ny":28,"refTime":"2024-05-02T09:00:00:Z","depth":0,"parameterNumber":2,"parameterNumberName":"U-component_of_WINDS"},"data":[0,0,0,0,0,0,0,0,0,0,0,0,0,0,0,0,0,0,0,0,0,0,0,0,0,0,0,0,0,0,0,0,0,0,0,0,0,0,0,0,0,0,0,0,0,0,0,0,0,0,0,0,0,0,0,0,0,0,-4.1292,-4.1293,0,-4.1362,-4.1362,-4.1363,-4.1355,-4.1353,-4.1352,-4.1351,-4.1419,-4.1422,-4.1424,0,0,0,0,0,0,0,0,0,0,0,0,0,-4.115,-4.1152,-4.1292,-4.1293,-4.1294,-4.1362,-4.1362,-4.1363,-4.1355,-4.1353,-4.1352,-4.1351,-4.1418,-4.1421,-4.1425,0,0,0,0,0,0,0,0,0,0,0,0,0,-4.1215,-4.1153,-4.1292,-4.1298,-4.1299,-4.1361,-4.1362,-4.1364,-4.1355,-4.1353,-4.1352,-4.135,-4.1417,-4.1421,-4.1425,-4.1485,0,0,-4.1438,-4.144,0,0,0,0,0,0,0,0,-4.1211,-4.122,-4.1296,-4.1297,-4.1299,-4.1348,-4.1337,-4.1404,-4.1356,-4.1334,-4.1351,-4.1349,-4.1396,-4.1402,-4.1419,-4.1488,-4.1491,-4.1439,-4.1441,-4.1443,-4.1444,0,0,0,0,0,0,0,-4.1206,-4.1217,-4.1319,-4.1297,-4.1299,-4.1296,-4.1304,-4.135,-4.1373,-4.1335,-4.1335,-4.1344,-4.1397,-4.1415,-4.142,-4.1492,-4.1438,-4.1442,-4.1445,-4.1447,-4.1615,-4.1617,0,0,0,0,0,0,-4.1201,-4.1213,-4.1317,-4.1321,-4.125,-4.13,-4.1308,-4.1334,-4.1373,-4.1377,-4.1345,-4.1343,-4.1408,-4.1415,-4.1423,-4.1495,-4.1443,-4.1447,-4.1449,-4.1613,-4.1616,-4.1618,0,0,0,0,0,0,-4.1198,-4.121,-4.1314,-4.1267,-4.128,-4.1304,-4.1333,-4.1336,-4.1354,-4.138,-4.1384,-4.1359,-4.1407,-4.1417,-4.147,-4.1497,-4.1449,-4.1453,-4.1611,-4.1614,-4.1617,-4.1641,0,0,0,0,0,0,-4.1194,-4.1209,-4.1232,-4.1268,-4.1283,-4.1361,-4.1335,-4.1339,-4.1362,-4.136,-4.1394,-4.1398,-4.1407,-4.1464,-4.1474,-4.1502,-4.1456,-4.1609,-4.1612,-4.1616,-4.1637,-4.1644,-4.165,0,0,0,0,0,-4.1189,-4.1235,-4.1233,-4.1246,-4.1312,-4.1363,-4.1371,-4.1381,-4.1364,-4.1387,-4.1405,-4.1397,-4.1494,-4.1469,-4.1481,-4.1511,-4.1607,-4.1611,-4.1615,-4.1635,-4.1643,-4.1649,0,0,0,0,0,0,-4.12,-4.124,-4.1238,-4.1298,-4.1327,-4.1361,-4.139,-4.1389,-4.1422,-4.1419,-4.1428,-4.1436,-4.149,-4.1506,-4.1479,-4.1572,-4.1548,-4.1555,-4.1558,-4.1566,-4.1572,-4.1566,-4.146,0,0,0,0,0,-4.121,-4.1248,-4.1281,-4.133,-4.1345,-4.1366,-4.1388,-4.1393,-4.1423,-4.1435,-4.1456,-4.1485,-4.1522,-4.1545,-4.158,-4.1641,-4.1648,-4.1668,-4.1674,-4.1679,-4.1683,-4.1717,-4.1726,-4.1632,-4.1632,-4.1632,0,0,-4.1229,-4.1256,-4.1279,-4.1333,-4.1356,-4.1395,-4.1376,-4.1417,-4.1446,-4.1441,-4.1492,-4.151,-4.1542,-4.16,-4.1626,-4.1615,-4.1712,-4.1684,-4.1688,-4.169,-4.1722,-4.1731,-4.1739,-4.1635,-4.1634,-4.1634,0,0,-4.1285,-4.131,-4.1354,-4.1378,-4.1415,-4.1428,-4.1439,-4.1474,-4.1486,-4.1539,-4.1536,-4.157,-4.1633,-4.1657,-4.1677,-4.1746,-4.174,-4.1757,-4.1788,-4.182,-4.1827,-4.1834,-4.1857,-4.1866,-4.1763,-4.1763,-4.1763,0,-4.1304,-4.1363,-4.1376,-4.1419,-4.1442,-4.1443,-4.1487,-4.151,-4.1555,-4.1571,-4.1559,-4.1639,-4.1661,-4.1724,-4.1742,-4.1759,-4.177,-4.1751,-4.1826,-4.1832,-4.1839,-4.1861,-4.187,-4.1764,-4.1764,-4.1764,-4.1764,0,-4.1385,-4.1426,-4.1458,-4.1503,-4.1531,-4.1574,-4.1593,-4.162,-4.1624,-4.1639,-4.1693,-4.172,-4.1761,-4.1778,-4.1781,-4.1842,-4.1834,-4.1824,-4.1799,-4.1849,-4.187,-4.1879,-4.1767,-4.1766,-4.1766,-4.1765,0,0,-4.1445,-4.1501,-4.1512,-4.1533,-4.1575,-4.1606,-4.1651,-4.1693,-4.1715,-4.1747,-4.1783,-4.1839,-4.1831,-4.1854,-4.186,-4.1889,-4.1941,-4.1876,-4.1877,-4.1886,-4.2009,-4.2015,-4.2024,-4.194,-4.1941,-4.1943,-4.2006,0,-4.1504,-4.1582,-4.1596,-4.1664,-4.1702,-4.1705,-4.1743,-4.1773,-4.1789,-4.1824,-4.1841,-4.188,-4.1867,-4.1881,-4.191,-4.1929,-4.1966,-4.1925,-4.1972,-4.1973,-4.1961,-4.2035,-4.2041,-4.2099,-4.2014,-4.2016,-4.2017,0,-4.1581,-4.1618,-4.169,-4.1728,-4.1745,-4.1779,-4.1819,-4.1853,-4.1887,-4.1897,-4.1924,-4.1929,-4.1974,-4.1951,-4.2013,-4.1985,-4.2006,-4.2019,-4.2021,-4.2023,-4.1996,-4.2038,-4.2118,-4.2126,-4.203,-4.2029,-4.2028,0,-4.1616,-4.1684,-4.1736,-4.1754,-4.18,-4.1824,-4.1845,-4.1877,-4.1902,-4.1938,-4.1954,-4.1994,-4.2015,-4.2046,-4.2061,-4.2043,-4.2123,-4.2101,-4.2131,-4.2131,-4.2145,-4.2143,-4.2227,-4.2162,-4.2162,-4.2162,-4.2162,0,-4.1678,-4.1722,-4.1752,-4.1784,-4.1833,-4.185,-4.1898,-4.1918,-4.1948,-4.1983,-4.1988,-4.2021,-4.204,-4.2076,-4.2088,-4.2138,-4.2148,-4.2156,-4.2159,-4.2155,-4.2153,-4.2166,-4.2161,-4.2164,-4.2164,-4.2163,-4.2163,0,-4.1725,-4.1747,-4.1804,-4.1844,-4.1855,-4.189,-4.1924,-4.1955,-4.1973,-4.2018,-4.2029,-4.2056,-4.2099,-4.2118,-4.217,-4.2179,-4.2235,-4.2235,-4.2223,-4.2223,-4.2252,-4.2249,-4.2345,-4.2358,-4.2287,-4.2288,-4.2288,0,-4.1761,-4.1795,-4.184,-4.1865,-4.1887,-4.1926,-4.1952,-4.1971,-4.1998,-4.2041,-4.2067,-4.211,-4.2145,-4.2213,-4.2237,-4.2278,-4.2278,-4.2309,-4.2283,-4.2279,-4.2276,-4.2273,-4.2276,-4.2312,-4.2313,-4.2314,-4.2314,0,-4.1824,-4.1834,-4.1872,-4.1915,-4.1946,-4.198,-4.2014,-4.2034,-4.2058,-4.2088,-4.2132,-4.216,-4.2215,-4.2257,-4.23,-4.232,-4.2321,-4.2323,-4.2332,-4.2326,-4.2317,-4.2321,-4.2233,-4.232,-4.2319,-4.2319,-4.2318,-4.2318,-4.1866,-4.1896,-4.1933,-4.1976,-4.2003,-4.2035,-4.2066,-4.2089,-4.2127,-4.2173,-4.2183,-4.223,-4.2265,-4.2322,-4.2345,-4.2382,-4.2374,-4.2387,-4.239,-4.2392,-4.2393,-4.2314,-4.239,-4.2389,-4.2389,-4.2389,-4.2389,0,-4.1927,-4.1952,-4.1991,-4.2039,-4.2072,-4.2073,-4.2111,-4.2139,-4.218,-4.2214,-4.2249,-4.2301,-4.2343,-4.2372,-4.2415,-4.2439,-4.244,-4.2449,-4.2446,-4.2451,-4.2398,-4.2386,-4.2447,-4.2447,-4.2447,-4.2447,-4.2447,-4.2447,-4.1963,-4.2015,-4.203,-4.2096,-4.212,-4.2167,-4.2188,-4.2218,-4.2245,-4.2302,-4.2338,-4.2357,-4.2389,-4.2435,-4.2473,-4.2481,-4.2495,-4.2504,-4.2511,-4.2461,-4.2454,-4.2448,-4.2436,-4.2508,-4.2508,-4.256,-4.2561,-4.2561]},{"header":{"parameterUnit":"m.s-1","parameterCategory":1,"la1":30.2991,"la2":30.254,"lo1":-89.0895,"lo2":-89.0444,"dy":0.0017,"dx":0.0017,"nx":28,"ny":28,"refTime":"2024-05-02T09:00:00:Z","depth":0,"parameterNumber":3,"parameterNumberName":"V-component_of_WINDS"},"data":[0,0,0,0,0,0,0,0,0,0,0,0,0,0,0,0,0,0,0,0,0,0,0,0,0,0,0,0,0,0,0,0,0,0,0,0,0,0,0,0,0,0,0,0,0,0,0,0,0,0,0,0,0,0,0,0,0,0,4.456,4.4559,0,4.4543,4.4542,4.4542,4.4532,4.4532,4.4532,4.4532,4.4508,4.4507,4.4507,0,0,0,0,0,0,0,0,0,0,0,0,0,4.458,4.4579,4.456,4.4559,4.4559,4.4543,4.4542,4.4542,4.4532,4.4532,4.4532,4.4532,4.4508,4.4507,4.4507,0,0,0,0,0,0,0,0,0,0,0,0,0,4.4568,4.4579,4.456,4.4552,4.4551,4.4543,4.4542,4.4542,4.4532,4.4532,4.4532,4.4532,4.4508,4.4508,4.4507,4.4502,0,0,4.4504,4.4504,0,0,0,0,0,0,0,0,4.4568,4.4567,4.4554,4.4553,4.4552,4.4539,4.4541,4.4528,4.4532,4.4539,4.4532,4.4532,4.4518,4.4516,4.4513,4.4501,4.45,4.4504,4.4503,4.4503,4.4503,0,0,0,0,0,0,0,4.4569,4.4567,4.4553,4.4553,4.4552,4.4549,4.4547,4.4538,4.4529,4.4538,4.4538,4.4536,4.4518,4.4514,4.4512,4.45,4.4504,4.4503,4.4502,4.4502,4.4485,4.4485,0,0,0,0,0,0,4.4572,4.4568,4.4553,4.4552,4.456,4.4548,4.4546,4.4543,4.4529,4.4527,4.4536,4.4536,4.4516,4.4513,4.4512,4.4507,4.4503,4.4502,4.4502,4.4485,4.4485,4.4485,0,0,0,0,0,0,4.4572,4.4571,4.4554,4.456,4.4558,4.4548,4.4545,4.4543,4.4539,4.4527,4.4525,4.4535,4.4515,4.4513,4.4506,4.4506,4.4502,4.4501,4.4485,4.4485,4.4485,4.4496,0,0,0,0,0,0,4.4573,4.4571,4.457,4.456,4.4557,4.4549,4.4545,4.4543,4.4539,4.4538,4.4525,4.4523,4.4515,4.4507,4.4505,4.4504,4.45,4.4485,4.4485,4.4485,4.4496,4.4497,4.4498,0,0,0,0,0,4.4574,4.4571,4.457,4.4568,4.4556,4.4549,4.4547,4.454,4.4539,4.4537,4.453,4.4523,4.4506,4.4506,4.4504,4.4503,4.4485,4.4485,4.4485,4.4495,4.4497,4.4498,0,0,0,0,0,0,4.4578,4.457,4.4568,4.4563,4.4557,4.4548,4.4545,4.4541,4.4534,4.4534,4.4523,4.4521,4.4515,4.4508,4.4508,4.4499,4.4495,4.4495,4.4504,4.4505,4.4506,4.4507,4.4499,0,0,0,0,0,4.4579,4.4576,4.4568,4.4564,4.4562,4.4554,4.4551,4.4547,4.4539,4.4536,4.4528,4.452,4.4513,4.4508,4.4501,4.4495,4.4493,4.4494,4.4495,4.4496,4.4495,4.4493,4.4494,4.4486,4.4486,4.4486,0,0,4.4579,4.4575,4.4573,4.4565,4.456,4.4557,4.4552,4.4547,4.4544,4.4535,4.4528,4.4522,4.4513,4.4507,4.4504,4.4501,4.4497,4.4496,4.4497,4.4496,4.4494,4.4494,4.4495,4.4486,4.4486,4.4486,0,0,4.4579,4.4575,4.4573,4.4569,4.4563,4.4558,4.4558,4.455,4.4546,4.4541,4.4534,4.453,4.4517,4.4512,4.4507,4.4509,4.4503,4.4506,4.451,4.4509,4.451,4.451,4.4511,4.4512,4.4506,4.4506,4.4506,0,4.458,4.4576,4.4571,4.4568,4.4565,4.456,4.4558,4.4553,4.4544,4.4542,4.454,4.4527,4.452,4.4513,4.4514,4.451,4.451,4.4507,4.451,4.4511,4.4511,4.4512,4.4513,4.4507,4.4507,4.4506,4.4506,0,4.4578,4.4575,4.4573,4.4568,4.4565,4.4562,4.4557,4.4554,4.4551,4.4547,4.4541,4.4533,4.4526,4.4524,4.4519,4.4517,4.4516,4.4512,4.4508,4.4512,4.4514,4.4514,4.4507,4.4507,4.4507,4.4507,0,0,4.4577,4.4573,4.4572,4.4571,4.4565,4.4562,4.456,4.4555,4.4553,4.4548,4.4545,4.4537,4.4535,4.453,4.4524,4.4523,4.4526,4.4519,4.4519,4.4521,4.4526,4.4529,4.4529,4.4523,4.4523,4.4523,4.4527,0,4.4576,4.4573,4.4571,4.4568,4.4566,4.4562,4.456,4.4556,4.4553,4.4549,4.4545,4.454,4.4536,4.4534,4.4532,4.4526,4.4527,4.4526,4.452,4.452,4.4523,4.453,4.4532,4.4536,4.4527,4.4527,4.4527,0,4.4574,4.4572,4.4571,4.4568,4.4567,4.4565,4.4562,4.4559,4.4555,4.4553,4.4549,4.4545,4.4542,4.4539,4.4534,4.4534,4.4531,4.4528,4.4528,4.4527,4.4523,4.4529,4.4537,4.4537,4.4528,4.4527,4.4527,0,4.4575,4.4572,4.4571,4.457,4.4567,4.4566,4.4564,4.456,4.4559,4.4555,4.4554,4.4549,4.4547,4.4543,4.4538,4.4536,4.4534,4.453,4.4532,4.4532,4.4531,4.4531,4.4539,4.4529,4.4529,4.4529,4.4529,0,4.4574,4.4573,4.4572,4.4571,4.4571,4.4568,4.4567,4.4565,4.4562,4.456,4.4556,4.4555,4.4548,4.4545,4.4541,4.4539,4.4537,4.4535,4.4533,4.4535,4.4536,4.4533,4.4532,4.453,4.4529,4.4529,4.4529,0,4.4574,4.4574,4.4573,4.4571,4.4571,4.4571,4.4569,4.4568,4.4566,4.4564,4.4563,4.4559,4.4556,4.4551,4.4545,4.4543,4.4542,4.4539,4.4544,4.4543,4.4545,4.4545,4.4551,4.4552,4.4542,4.4543,4.4543,0,4.4574,4.4574,4.4574,4.4574,4.4573,4.4573,4.4572,4.457,4.4569,4.4566,4.4566,4.4563,4.4561,4.4557,4.4552,4.4549,4.4547,4.4549,4.4546,4.4548,4.4547,4.4548,4.4548,4.455,4.455,4.455,4.455,0,4.4573,4.4574,4.4574,4.4575,4.4575,4.4575,4.4574,4.4574,4.4571,4.4571,4.457,4.4568,4.4565,4.4563,4.456,4.4556,4.4553,4.4552,4.4552,4.4553,4.4556,4.4555,4.4546,4.4551,4.4551,4.4551,4.4551,4.4551,4.4573,4.4574,4.4575,4.4576,4.4576,4.4577,4.4577,4.4576,4.4576,4.4575,4.4573,4.4572,4.457,4.4566,4.4564,4.4562,4.456,4.456,4.456,4.4561,4.4562,4.4557,4.4562,4.4561,4.4561,4.4561,4.4561,0,4.4573,4.4575,4.4576,4.4577,4.4578,4.4578,4.4578,4.4578,4.4579,4.4578,4.4577,4.4577,4.4575,4.4572,4.4571,4.457,4.4569,4.457,4.457,4.4569,4.4563,4.4563,4.4572,4.4572,4.4572,4.4572,4.4572,4.4572,4.4573,4.4575,4.4577,4.4579,4.458,4.4581,4.4581,4.4582,4.4582,4.4582,4.4582,4.4581,4.458,4.4579,4.4578,4.4577,4.4576,4.4578,4.4577,4.457,4.4569,4.4569,4.4569,4.4578,4.4578,4.4583,4.4583,4.4583]}]]